Погода в Карлтон-Плэйс

Канада     45°08′29″N   76°08′52″W
темп.,
°C
ветер,
м/с
пор.,
м/с
влажн.,
%
обл.,
%
осадки,
мм/ч
давл.,
гПа
погр.,
м
22 января, пт
пт2201:00−3зюз4118792 0.2 997426
04:00−7зюз369027 0.0 999136
07:00−8з389119 0.0 1000223
10:00−7зсз498436 0.0 1003555
13:00−6сз588165 0.0 1005810
16:00−8сз5983100 0.0 1008811
19:00−11сз5118694 0.1 1011593
22:00−14сз5118791 0.0 1013573
23 января, сб
сб2301:00−16сз5118888 0.0 1015549
04:00−17сз5128875 0.0 1017566
07:00−18сз5138884 0.0 1020530
10:00−18сз61286100 0.0 1021520
13:00−15сз6118394 0.0 1022602
16:00−14сз6128372 0.0 1022665
19:00−15сз6148457 0.0 1024563
22:00−16сз513850 0.0 1025514
24 января, вс
вс2401:00−17сз513850 0.0 1025479
04:00−18зсз513840 0.0 1024421
07:00−19сз512840 0.0 1025378
10:00−17сз5118026 0.0 1024382
13:00−13сз497750 0.0 1022436
16:00−12сз497986 0.0 1021510
19:00−13зсз398493 0.0 1022341
22:00−15сз388959 0.0 1022224
25 января, пн
пн2501:00−16сз379259 0.0 1022190
04:00−16зсз269396 0.0 1022176
07:00−18сз259358 0.0 1022119
10:00−14зсз36830 0.0 1023274
13:00−10сз35780 0.0 1020375
16:00−9сз24850 0.0 1019272
19:00−13зсз22890 0.0 102021
22:00−13ссз22900 0.0 102020
26 января, вт
вт2601:00−14ссз12930 0.0 101920
04:00−15ссз22920 0.0 101825
07:00−16сз23920 0.0 101957
10:00−13ссз35850 0.0 1020260
13:00−9сз35820 0.0 1019384
16:00−8сз25870 0.0 1020337
19:00−12сз23922 0.0 102249
22:00−13сз359619 0.0 1024125